Regional Weather Roundup
Issued by NWS

Home | Current Version | Previous Version | Text Only | Print | Product List | Glossary Off
Versions: 1 2 3 4 5 6 7 8 9 10 11 12 13 14 15 16 17 18 19 20 21 22 23 24 25 26 27 28 29 30 31 32 33 34 35 36 37 38 39 40 41 42 43 44 45 46 47 48 49 50

000
ASUS45 KABQ 031910
RWRNM
NEW MEXICO REGIONAL WEATHER ROUNDUP
NATIONAL WEATHER SERVICE ALBUQUERQUE NM
100 PM MDT FRI JUL 03 2015

NOTE: "FAIR" MEANS FEW OR NO CLOUDS BELOW 12,000 FEET AGL WITH NO
       SIGNIFICANT WEATHER OR OBSTRUCTIONS TO VISION.

      THIS PRODUCT IS RELEASED AS TWO VERSIONS.  ONE VERSION NEAR
      THE TOP OF THE HOUR CONTAINING PRELIMINARY DATA FROM ALBUQUERQUE
      AND OTHER STATIONS.  A FINAL VERSION WITH ADDITIONAL DATA IS
      ISSUED ABOUT 10 MINUTES AFTER THE HOUR.

NMZ501-503-504-510>518-032000-
NORTHWEST PLATEAU/NORTHCENTRAL MOUNTAINS

CITY           SKY/WX    TMP DP  RH WIND       PRES   REMARKS
FARMINGTON     SUNNY     83  52  34 VRB3      30.15F
LOS ALAMOS     PTSUNNY   73  53  48 SE5       30.31F
SANTA FE       PTSUNNY   79  52  38 S10       30.23F
TAOS           MOSUNNY   77  48  36 W7          N/A
ANGEL FIRE     FAIR      69  53  57 SW3       30.37F

$$
NMZ402-403-502-505>509-032000-
WESTCENTRAL MOUNTAINS/SOUTHWEST MOUNTAINS

CITY           SKY/WX    TMP DP  RH WIND       PRES   REMARKS
GALLUP         MOSUNNY   81  52  36 SE6       30.22F
GRANTS         SUNNY     80  55  42 SE7       30.25F
SILVER CITY      N/A     81  54  39 SW8       30.17F

$$
NMZ407-409-411-412-032000-
SOUTHERN DESERTS

CITY           SKY/WX    TMP DP  RH WIND       PRES   REMARKS
LORDSBURG      FAIR      84  59  42 W6        30.08F
DEMING         SUNNY     89  55  31 NW7       30.08F
LAS CRUCES     MOSUNNY   86  56  36 E10       30.10F
HOLLOMAN AFB   MOSUNNY   87  57  36 N9        30.06F
ALAMOGORDO     MOSUNNY   86  57  37 W6G18     30.08F
T OR C         SUNNY     87  56  34 MISG      30.10F

$$
NMZ519>523-032000-
CENTRAL VALLEYS/CENTRAL HIGHLANDS

CITY           SKY/WX    TMP DP  RH WIND       PRES   REMARKS
ALBUQUERQUE    PTSUNNY   81  56  42 VRB3      30.18F
DOUBLE EAGLE   PTSUNNY   79  59  50 SW6       30.21F
MORIARTY ARPT    N/A     78  53  41 S8        30.26F
CLINES CORNERS PTSUNNY   74  52  46 SE6       30.29F
BELEN          FAIR      84  53  33 E6        30.16F
SOCORRO        FAIR      82  57  43 CALM      30.13F

$$
NMZ524>526-539-540-032000-
SOUTHCENTRAL MOUNTAINS

CITY           SKY/WX    TMP DP  RH WIND       PRES   REMARKS
RUIDOSO        PTSUNNY   66  57  72 E10       30.33F

$$
NMZ527>531-032000-
NORTHEAST HIGHLANDS/NORTHEAST PLAINS

CITY           SKY/WX    TMP DP  RH WIND       PRES   REMARKS
LAS VEGAS      CLOUDY    73  58  59 S7        30.28F
RATON          MOSUNNY   77  57  50 S8        30.22F
CLAYTON        MOSUNNY   87  48  25 SE13      30.15F

$$
NMZ532>537-032000-
EASTCENTRAL PLAINS

CITY           SKY/WX    TMP DP  RH WIND       PRES   REMARKS
TUCUMCARI      MOSUNNY   85  59  41 S7        30.10F
CANNON AFB     PTSUNNY   84  60  43 SE9       30.13F
CLOVIS AIRPORT CLOUDY    81  63  54 S12         N/A

$$
NMZ028-029-538-032000-
SOUTHEAST PLAINS

CITY           SKY/WX    TMP DP  RH WIND       PRES   REMARKS
ROSWELL        CLOUDY    77  62  59 NW14      30.10F
ARTESIA        PTSUNNY   82  64  54 NW17G30   30.09R
CARLSBAD       MOSUNNY   91  61  36 VRB5      30.03F
HOBBS          PTSUNNY   88  59  37 E10       30.08F


$$


USA.gov is the U.S. government's official web portal to all federal, state and local government web resources and services.